Location: ČR
(50.0000°N, 15.0000°E)
Time: 16:05:47
(UTC+01:00)

Courier 1B - Pass Details

Date: 15 February 2026
Orbit: 962 x 1208 km, 28.3° (Epoch: 16 March)

Event Time Altitude Azimuth Distance (km) Brightness Sun altitude
Rises 20:44:51 0° 211° (SSW) 4,002 10.8 -33.3°
Enters shadow 20:47:37 - 197° (SSW) 3,454 10.3 -33.7°
Reaches altitude 10° 20:50:53 10° 175° (S) 3,098 - -34.2°
Maximum altitude 20:52:11 10° 165° (SSE) 3,071 - -34.4°
Drops below altitude 10° 20:53:29 10° 155° (SSE) 3,116 - -34.6°
Sets 20:59:39 0° 119° (ESE) 4,105 - -35.5°
